Regional Weather Roundup
Issued by NWS

Home | Current Version | Previous Version | Graphics & Text | Print | Product List | Glossary On
Versions: 1 2 3 4 5 6 7 8 9 10 11 12 13 14 15 16 17 18 19 20 21 22 23 24 25 26 27 28 29 30 31 32 33 34 35 36 37 38 39 40 41 42 43 44 45 46 47 48 49 50
935
ASUS43 KBIS 221810
RWRND

NORTH DAKOTA REGIONAL WEATHER ROUNDUP
NATIONAL WEATHER SERVICE BISMARCK ND
100 PM CDT FRI MAY 22 2015

NOTE: "FAIR" INDICATES FEW OR NO CLOUDS BELOW 12,000 FEET WITH NO
SIGNIFICANT WEATHER AND/OR OBSTRUCTIONS TO VISIBILITY.


NDZ001>003-009>011-017-221900-
NORTHWEST NORTH DAKOTA

CITY           SKY/WX    TMP DP  RH WIND       PRES   REMARKS
WILLISTON      MOSUNNY   73  32  22 SE12G24   30.09F
6HR MIN TEMP:  41; 6HR MAX TEMP:  75;

MINOT          SUNNY     74  33  22 S9        30.12F
MINOT AFB      SUNNY     77  31  19 SE12      30.10F HAZE
$$

NDZ018>021-031>035-040>046-221900-
SOUTHWEST NORTH DAKOTA

CITY           SKY/WX    TMP DP  RH WIND       PRES   REMARKS
BISMARCK       SUNNY     73  37  27 SE9       30.15F
6HR MIN TEMP:  40; 6HR MAX TEMP:  73;

DICKINSON      SUNNY     70  31  23 SE22G33   30.09F
GARRISON         N/A     72  32  23 S8        30.13F
6HR MIN TEMP:  45; 6HR MAX TEMP:  73;

HETTINGER ARPT MOSUNNY   67  32  27 SE16G32   30.11F
$$

NDZ004>008-012>016-024-026-027-054-221900-
NORTHEAST NORTH DAKOTA

CITY           SKY/WX    TMP DP  RH WIND       PRES   REMARKS
GRAND FORKS    SUNNY     73  37  27 S5        30.16S
GRND FRKS AFB  SUNNY     74  37  26 SW10      30.17R
DEVILS LAKE    SUNNY     72  34  25 SW8       30.16S
$$

NDZ022-023-025-028>030-036>039-047>053-221900-
SOUTHEAST NORTH DAKOTA

CITY           SKY/WX    TMP DP  RH WIND       PRES   REMARKS
FARGO          SUNNY     71  37  28 S6        30.19S
6HR MIN TEMP:  45; 6HR MAX TEMP:  71;

JAMESTOWN      SUNNY     71  38  29 S12       30.17F
$$




USA.gov is the U.S. government's official web portal to all federal, state and local government web resources and services.